Location: Le Hiès Ruisseau
(43.3000°N, 0.4500°W)
Time: 01:47:21
(UTC+00:00)

Cosmos 1023 Rocket - Pass Details

Date: 28 January 2023
Orbit: 735 x 771 km, 74.1° (Epoch: 27 March)

Event Time Altitude Azimuth Distance (km) Brightness Sun altitude
Rises 18:12:25 0° 190° (S) 3,201 8.0 -11.9°
Reaches altitude 10° 18:14:48 10° 187° (S) 2,274 7.2 -12.3°
Maximum altitude 18:19:54 65° 107° (ESE) 823 4.4 -13.2°
Drops below altitude 10° 18:24:59 10° 26° (NNE) 2,267 6.6 -14.1°
Enters shadow 18:26:02 - 25° (NNE) 2,676 7.0 -14.3°
